1367971227825,0.945092
1367971287825,0.949351
1367971347825,0.954079
1367971407825,0.954540
1367971467825,0.939583
1367971527825,0.945126
1367971587825,0.942824
1367971647825,0.943804
1367971707825,0.949875
1367971767825,0.943540
1367971827825,0.951812
1367971887825,0.941603
1367971947825,0.944095
1367972007825,0.948893
1367972067825,0.952941
1367972127825,0.950134
1367972187825,0.957316
1367972247825,0.959442
1367972307825,0.985103
1367972367825,0.999650
1367972427825,1.01462
1367972487825,1.02029
1367972547825,1.03138
1367972607825,1.03647
1367972667825,1.04321
1367972727825,1.03669
1367972787825,1.03426
1367972847825,1.03628
1367972907825,1.03407
1367972967825,1.02309
1367973027825,1.01812
1367973087825,1.01238
1367973147825,1.00153
1367973207825,0.995616
1367973267825,0.988551
1367973327825,0.975473
1367973387825,0.974583
1367973447825,0.958024
1367973507825,0.960316
1367973567825,0.960102
1367973627825,0.959651
1367973687825,0.970005
1367973747825,0.960950
1367973807825,0.968267
1367973867825,0.954590
1367973927825,0.953505
1367973987825,0.962183
1367974047825,0.962063
1367974107825,0.959034
1367974167825,0.967224
1367974227825,0.953207
1367974287825,0.987985
1367974347825,0.958059
1367974407825,0.952104
1367974467825,0.959262
1367974527825,0.959149
1367974587825,0.954962
1367974647825,0.954394
1367974707825,0.960512
1367974767825,0.963530
1367974827836,0.958021
1367974887836,0.958579
1367974947836,0.962705
1367975007836,0.969881
1367975067836,0.965305
1367975127836,0.960054
1367975187836,0.964897
1367975247836,0.962561
1367975307836,0.957672
1367975367836,0.964200
1367975427836,0.962648
1367975487836,0.968411
1367975547836,0.968617
1367975607836,0.971307
1367975667836,0.973453
1367975727836,0.965001
1367975787836,0.966674
1367975847836,0.973606
1367975907836,0.970644
1367975967836,0.977120
1367976027836,0.972097
1367976087836,0.977438
1367976147836,0.970668
1367976207836,0.973911
1367976267836,0.975852
1367976327836,0.976604
1367976387836,0.981712
1367976447836,0.973832
1367976507836,0.979504
1367976567836,0.980585
1367976627836,0.964999
1367976687836,0.975969
1367976747836,0.978644
1367976807836,0.976304
1367976867836,0.965856
1367976927836,0.977543
1367976987836,0.987142
1367977047836,0.980764
1367977107836,0.971704
1367977167836,0.983018
1367977227836,0.980234
1367977287836,0.975997
1367977347836,0.976379
1367977407836,0.977482
1367977467836,0.977780
1367977527836,0.974782
1367977587836,0.979035
1367977647836,0.975167
1367977707836,0.971699
1367977767836,0.967379
1367977827836,0.973193
1367977887836,0.977340
1367977947836,0.973613
1367978007836,0.966961
1367978067836,0.980058
1367978127836,0.974671
1367978187836,0.975791
1367978247836,0.970802
1367978307836,0.975745
1367978367836,0.975244
1367978427846,0.965224
1367978487846,0.976567
1367978547846,0.978365
1367978607846,0.973657
1367978667846,0.974459
1367978727846,0.971002
1367978787846,0.975492
1367978847846,0.972650
1367978907846,0.971466
1367978967846,0.980111
1367979027846,0.975192
1367979087846,0.976382
1367979147846,0.971629
1367979207846,0.973634
1367979267846,0.977237
1367979327846,0.977619
1367979387846,0.971016
1367979447846,0.977273
1367979507846,0.980257
1367979567846,0.985234
1367979627846,0.972791
1367979687846,0.973188
1367979747846,0.980520
1367979807846,0.972746
1367979867846,0.978502
1367979927846,0.977989
1367979987846,0.971466
1367980047846,0.980716
1367980107846,0.974948
1367980167846,0.981613
1367980227846,0.980516
1367980287846,0.978139
1367980347846,0.989385
1367980407846,0.985295
1367980467846,0.978836
1367980527846,0.984089
1367980587846,0.977820
1367980647846,0.974380
1367980707846,0.982083
1367980767846,0.973967
1367980827846,0.983378
1367980887846,0.981200
1367980947846,0.970800
1367981007846,0.981589
1367981067846,0.970411
1367981127846,0.971512
1367981187846,0.969797
1367981247846,0.975149
1367981307846,0.976057
1367981367846,0.969514
1367981427846,0.968648
1367981487846,0.978792
1367981547846,0.985402
1367981607846,0.971924
1367981667846,0.972067
1367981727846,0.983886
1367981787846,0.977395
1367981847846,0.986810
1367981907846,0.981169
1367981967846,0.984146
1367982027857,0.991700
1367982087857,0.983838
1367982147857,0.985494
1367982207857,1.00770
1367982267857,0.991872
1367982327857,0.989729
1367982387856,0.987188
1367982447856,0.987939
1367982507856,0.996315
1367982567856,0.994922
1367982627856,1.00238
1367982687856,0.999497
1367982747857,1.00226
1367982807857,1.00733
1367982867857,1.00251
1367982927857,1.00447
1367982987857,1.00481
1367983047857,1.00220
1367983107857,1.00406
1367983167857,1.00108
1367983227857,0.996412
1367983287857,0.998737
1367983347857,0.985698
1367983407857,0.988291
1367983467857,0.995543
1367983527857,0.995384
1367983587857,0.996940
1367983647857,0.995101
1367983707857,0.990678
1367983767856,0.988319
1367983827856,0.990712
1367983887856,0.984262
1367983947856,0.986508
1367984007856,0.983459
1367984067857,0.984781
1367984127857,0.989466
1367984187857,0.974609
1367984247857,0.982429
1367984307857,0.982908
1367984367857,0.982438
1367984427857,0.977337
1367984487857,0.974825
1367984547857,0.975462
1367984607857,0.981838
1367984667857,0.981215
1367984727857,0.978997
1367984787857,0.980582
1367984847857,0.981582
1367984907857,0.983007
1367984967857,0.977334
1367985027857,0.974452
1367985087856,0.976138
1367985147856,0.970839
1367985207856,0.969423
1367985267856,0.979473
1367985327856,0.979609
1367985387856,0.976068
1367985447857,0.970293
1367985507857,0.971640
1367985567857,0.966090
1367985627867,0.975818
1367985687867,0.968737
1367985747867,0.970326
1367985807867,0.972413
1367985867867,0.964569
1367985927867,0.969206
1367985987867,0.969854
1367986047867,0.972219
1367986107867,0.972018
1367986167867,0.966433
1367986227867,0.973495
1367986287867,0.958390
1367986347867,0.967532
1367986407867,0.963852
1367986467867,0.973145
1367986527867,0.968382
1367986587867,0.970845
1367986647867,0.969152
1367986707867,0.968198
1367986767867,0.972796
1367986827867,0.969263
1367986887867,0.972168
1367986947867,0.970420
1367987007867,0.968695
1367987067867,0.975634
1367987127867,0.966462
1367987187867,0.973844
1367987247867,0.965163
1367987307867,0.970728
1367987367867,0.968528
1367987427867,0.962701
1367987487867,0.968289
1367987547867,0.968471
1367987607867,0.969633
1367987667867,0.960030
1367987727867,0.967678
1367987787867,0.970655
1367987847867,0.970312
1367987907867,0.962123
1367987967867,0.961805
1367988027867,0.978135
1367988087867,0.969494
1367988147867,0.959495
1367988207867,0.964817
1367988267867,0.960253
1367988327867,0.967003
1367988387867,0.966812
1367988447867,0.964688
1367988507867,0.966811
1367988567867,0.968110
1367988627867,0.966736
1367988687867,0.975606
1367988747867,0.961755
1367988807867,0.963830
1367988867867,0.968197
1367988927867,0.962364
1367988987867,0.958143
1367989047867,0.968786
1367989107867,0.964585
1367989167867,0.971860
1367989227877,0.963568
1367989287877,0.965602
1367989347877,0.965212
1367989407877,0.967937
1367989467877,0.966547
1367989527877,0.971438
1367989587877,0.970101
1367989647877,0.966068
1367989707877,0.969852
1367989767877,0.968166
1367989827877,0.975353
1367989887877,0.969478
1367989947877,0.958268
1367990007877,0.965696
1367990067877,0.966520
1367990127877,0.977688
1367990187877,0.964590
1367990247877,0.981301
1367990307877,0.971765
1367990367877,0.975655
1367990427877,0.969193
1367990487877,0.974544
1367990547877,0.971233
1367990607877,0.974684
1367990667877,0.979446
1367990727877,0.965723
1367990787877,0.969341
1367990847877,0.975153
1367990907877,0.978917
1367990967877,0.974633
1367991027877,0.979684
1367991087877,0.969658
1367991147877,0.975857
1367991207877,0.973252
1367991267877,0.981711
1367991327877,0.979173
1367991387877,0.976007
1367991447877,0.974211
1367991507877,0.975437
1367991567877,0.968432
1367991627877,0.974191
1367991687877,0.976861
1367991747877,0.975854
1367991807877,0.976828
1367991867877,0.971383
1367991927877,0.972113
1367991987877,0.976456
1367992047877,0.970703
1367992107877,0.978835
1367992167877,0.976172
1367992227877,0.968733
1367992287877,0.969660
1367992347877,0.971082
1367992407877,0.979672
1367992467877,0.975781
1367992527877,0.980093
1367992587877,0.965267
1367992647877,0.971343
1367992707877,0.970756
1367992767877,0.969878
1367992827887,0.971916
1367992887887,0.975785
1367992947887,0.969764
1367993007887,0.975096
1367993067887,0.976357
1367993127887,0.980692
1367993187887,0.969569
1367993247887,0.979292
1367993307887,0.970141
1367993367887,0.977740
1367993427886,0.975765
1367993487887,0.970409
1367993547887,0.973461
1367993607887,0.973580
1367993667887,0.968990
1367993727887,0.974005
1367993787887,0.971770
1367993847887,0.966052
1367993907887,0.956891
1367993967887,0.973548
1367994027887,0.963381
1367994087887,0.969539
1367994147887,0.979537
1367994207887,0.965487
1367994267887,0.965433
1367994327887,0.979478
1367994387887,0.967889
1367994447887,0.965296
1367994507887,0.967912
1367994567887,0.961610
1367994627887,0.963257
1367994687887,0.972153
1367994747887,0.978895
1367994807887,0.984608
1367994867887,0.980411
1367994927887,0.992899
1367994987887,0.989861
1367995047887,0.980567
1367995107887,0.989169
1367995167887,1.00013
1367995227887,0.995618
1367995287887,0.999576
1367995347887,0.999087
1367995407887,0.989085
1367995467887,0.992684
1367995527887,0.996155
1367995587887,0.998059
1367995647887,0.994655
1367995707887,1.00312
1367995767887,1.00433
1367995827887,1.00049
1367995887887,0.998269
1367995947887,0.996992
1367996007887,1.00077
1367996067887,0.992701
1367996127886,0.998630
1367996187887,1.00059
1367996247887,0.997975
1367996307887,0.991714
1367996367887,0.993705
1367996427896,0.991628
1367996487896,0.990896
1367996547896,0.993091
1367996607896,0.989792
1367996667896,0.984223
1367996727896,0.980837
1367996787896,0.977902
1367996847896,0.983368
1367996907896,0.978389
1367996967896,0.977517
1367997027896,0.974579
1367997087896,0.980219
1367997147896,0.970809
1367997207896,0.981153
1367997267896,0.965478
1367997327896,0.969345
1367997387896,0.972961
1367997447896,0.966228
1367997507896,0.969168
1367997567896,0.964475
1367997627896,0.965179
1367997687896,0.974782
1367997747896,0.967872
1367997807896,0.970480
1367997867896,0.966630
1367997927896,0.973248
1367997987896,0.968437
1367998047896,0.968654
1367998107896,0.977385
1367998167896,0.972954
1367998227896,0.973281
1367998287896,0.967733
1367998347896,0.969309
1367998407896,0.972416
1367998467896,0.957132
1367998527896,0.964770
1367998587896,0.963321
1367998647896,0.964806
1367998707896,0.968708
1367998767896,0.965482
1367998827896,0.964891
1367998887896,0.958019
1367998947896,0.963415
1367999007896,0.962773
1367999067896,0.947412
1367999127896,0.964678
1367999187896,0.961793
1367999247896,0.961513
1367999307896,0.954630
1367999367896,0.959411
1367999427896,0.951859
1367999487896,0.963943
1367999547896,0.958129
1367999607896,0.966166
1367999667896,0.959414
1367999727896,0.963498
1367999787896,0.961556
1367999847896,0.961498
1367999907896,0.966296
1367999967896,0.958855
1368000027906,0.953087
1368000087906,0.971545
1368000147906,0.955521
1368000207906,0.961770
1368000267906,0.960823
1368000327906,0.964616
1368000387906,0.958771
1368000447906,0.968738
1368000507906,0.964611
1368000567906,0.960590
1368000627906,0.966498
1368000687906,0.956195
1368000747906,0.971693
1368000807906,0.966833
1368000867906,0.958571
1368000927906,0.972893
1368000987906,0.963855
1368001047906,0.967407
1368001107906,0.956999
1368001167906,0.962482
1368001227906,0.965047
1368001287906,0.959633
1368001347906,0.960371
1368001407906,0.965459
1368001467906,0.953875
1368001527906,0.966293
1368001587906,0.964001
1368001647906,0.962167
1368001707906,0.961183
1368001767906,0.954454
1368001827906,0.951817
1368001887906,0.956507
1368001947906,0.953243
1368002007906,0.959908
1368002067906,0.953948
1368002127906,0.953968
1368002187906,0.955662
1368002247906,0.960163
1368002307906,0.956947
1368002367906,0.951022
1368002427906,0.952874
1368002487906,0.953363
1368002547906,0.955608
1368002607906,0.957695
1368002667906,0.955923
1368002727906,0.960029
1368002787906,0.953061
1368002847906,0.970884
1368002907906,0.957573
1368002967906,0.964678
1368003027906,0.953874
1368003087906,0.957796
1368003147906,0.946165
1368003207906,0.957963
1368003267906,0.962430
1368003327906,0.950039
1368003387906,0.956514
1368003447906,0.951900
1368003507906,0.963355
1368003567906,0.959698
1368003627916,0.963046
1368003687916,0.955515
1368003747916,0.952878
1368003807916,0.954020
1368003867916,0.958550
1368003927916,0.959910
1368003987916,0.956033
1368004047916,0.954515
1368004107916,0.961273
1368004167916,0.957260
1368004227916,0.956547
1368004287916,0.958483
1368004347916,0.960203
1368004407916,0.962434
1368004467916,0.960547
1368004527916,0.960055
1368004587916,0.963866
1368004647916,0.959246
1368004707916,0.956894
1368004767916,0.957607
1368004827916,0.958264
1368004887916,0.966952
1368004947916,0.961489
1368005007916,0.955570
1368005067916,0.968332
1368005127916,0.955235
1368005187916,0.955590
1368005247916,0.961917
1368005307916,0.958292
1368005367916,0.961448
1368005427916,0.963773
1368005487916,0.953087
1368005547916,0.956977
1368005607916,0.961185
1368005667916,0.959415
1368005727916,0.961089
1368005787916,0.956873
1368005847916,0.958131
1368005907916,0.954739
1368005967916,0.953543
1368006027916,0.956647
1368006087916,0.951243
1368006147916,0.951755
1368006207916,0.956109
1368006267916,0.962475
1368006327916,0.956316
1368006387916,0.950136
1368006447916,0.959811
1368006507916,0.948980
1368006567916,0.955531
1368006627916,0.951424
1368006687916,0.954624
1368006747916,0.958157
1368006807916,0.956679
1368006867916,0.949271
1368006927916,0.948712
1368006987916,0.962194
1368007047916,0.956503
1368007107916,0.964270
1368007167916,0.957230
1368007227926,0.949414
1368007287926,0.955704
1368007347926,0.953007
1368007407926,0.952905
1368007467926,0.954637
1368007527926,0.959429
1368007587926,0.950735
1368007647926,0.954594
1368007707926,0.949541
1368007767926,0.959286
1368007827926,0.952861
1368007887926,0.960786
1368007947926,0.958321
1368008007926,0.959303
1368008067926,0.954602
1368008127926,0.955395
1368008187926,0.950926
1368008247926,0.956664
1368008307926,0.951139
1368008367926,0.953752
1368008427926,0.970782
1368008487926,0.957204
1368008547926,0.950093
1368008607926,0.957406
1368008667926,0.954289
1368008727926,0.948642
1368008787926,0.954567
1368008847926,0.957982
1368008907926,0.947314
1368008967926,0.954116
1368009027926,0.952745
1368009087926,0.957428
1368009147926,0.955922
1368009207926,0.950112
1368009267926,0.947934
1368009327926,0.957567
1368009387926,0.950696
1368009447926,0.950828
1368009507926,0.960451
1368009567926,0.956840
1368009627926,0.951780
1368009687926,0.950463
1368009747926,0.960601
1368009807926,0.953534
1368009867926,0.951170
1368009927926,0.954037
1368009987926,0.957018
1368010047926,0.956371
1368010107926,0.963365
1368010167926,0.948815
1368010227926,0.947397
1368010287926,0.947372
1368010347926,0.947872
1368010407926,0.951284
1368010467926,0.954556
1368010527926,0.952529
1368010587926,0.950852
1368010647926,0.945761
1368010707926,0.945118
1368010767926,0.948110
1368010827936,0.948844
1368010887936,0.966069
1368010947936,0.961236
1368011007936,0.962806
1368011067936,0.968237
1368011127936,0.967619
1368011187936,0.963790
1368011247936,0.959787
1368011307936,0.959157
1368011367936,0.967234
1368011427936,0.954957
1368011487936,0.957051
1368011547936,0.962624
1368011607936,0.954586
1368011667936,0.954591
1368011727936,0.952865
1368011787936,0.957035
1368011847936,0.951428
1368011907936,0.955521
1368011967936,0.958314
1368012027936,0.957807
1368012087936,0.954877
1368012147936,0.953092
1368012207936,0.949219
1368012267936,0.952543
1368012327936,0.954573
1368012387936,0.957675
1368012447936,0.948270
1368012507936,0.951049
1368012567936,0.945147
1368012627936,0.959657
1368012687936,0.952437
1368012747936,0.951053
1368012807936,0.946680
1368012867936,0.950146
1368012927936,0.948931
1368012987936,0.942465
1368013047936,0.946892
1368013107936,0.950331
1368013167936,0.948640
1368013227936,0.938227
1368013287936,0.946867
1368013347936,0.953747
1368013407936,0.940496
1368013467936,0.947894
1368013527936,0.950283
1368013587936,0.948499
1368013647936,0.941352
1368013707936,0.945803
1368013767936,0.954295
1368013827936,0.947130
1368013887936,0.943386
1368013947936,0.952005
1368014007936,0.946265
1368014067936,0.947324
1368014127936,0.941080
1368014187936,0.952712
1368014247936,0.950191
1368014307936,0.956359
1368014367936,0.946747
1368014427945,0.948211
1368014487945,0.945808
1368014547945,0.957485
1368014607945,0.944651
1368014667945,0.941370
1368014727945,0.942336
1368014787945,0.951752
1368014847945,0.946137
1368014907945,0.956053
1368014967945,0.945118
1368015027945,0.951999
1368015087945,0.953408
1368015147945,0.950347
1368015207945,0.949887
1368015267945,0.954148
1368015327945,0.951759
1368015387945,0.951089
1368015447945,0.954274
1368015507945,0.955069
1368015567945,0.955590
1368015627945,0.948541
1368015687945,0.948091
1368015747945,0.951168
1368015807945,0.948267
1368015867945,0.945315
1368015927945,0.952466
1368015987945,0.943406
1368016047945,0.951514
1368016107945,0.950660
1368016167945,0.952549
1368016227945,0.943586
1368016287945,0.937354
1368016347945,0.957231
1368016407945,0.955548
1368016467945,0.955442
1368016527945,0.953590
1368016587945,0.950862
1368016647945,0.955608
1368016707945,0.954181
1368016767945,0.948865
1368016827945,0.950449
1368016887945,0.953396
1368016947945,0.956840
1368017007945,0.950074
1368017067945,0.942629
1368017127945,0.949472
1368017187945,0.958905
1368017247945,0.941139
1368017307945,0.952521
1368017367945,0.943698
1368017427945,0.944720
1368017487945,0.949354
1368017547945,0.958346
1368017607945,0.955970
1368017667945,0.945924
1368017727945,0.941396
1368017787945,0.949302
1368017847945,0.947245
1368017907945,0.954395
1368017967945,0.946225
1368018027955,0.945449
1368018087955,0.956699
1368018147955,0.947805
1368018207955,0.956523
1368018267955,0.954311
1368018327955,0.949182
1368018387955,0.941618
1368018447955,0.957587
1368018507955,0.950350
1368018567955,0.948597
1368018627955,0.951286
1368018687955,0.953548
1368018747955,0.946107
1368018807955,0.949764
1368018867955,0.950931
1368018927955,0.952650
1368018987955,0.945932
1368019047955,0.950355
1368019107955,0.954009
1368019167955,0.957152
1368019227955,0.955851
1368019287955,0.957752
1368019347955,0.953134
1368019407955,0.953700
1368019467955,0.949092
1368019527955,0.960949
1368019587955,0.954072
1368019647955,0.960815
1368019707955,0.945434
1368019767955,0.958172
1368019827955,0.954411
1368019887955,0.949563
1368019947955,0.948502
1368020007955,0.963030
1368020067955,0.954781
1368020127955,0.953110
1368020187955,0.956117
1368020247955,0.949638
1368020307955,0.946971
1368020367955,0.955815
1368020427955,0.956573
1368020487955,0.952544
1368020547955,0.953028
1368020607955,0.947900
1368020667955,0.950879
1368020727955,0.953825
1368020787955,0.951554
1368020847955,0.951738
1368020907955,0.945172
1368020967955,0.954364
1368021027955,0.950904
1368021087955,0.952889
1368021147955,0.943595
1368021207955,0.947962
1368021267955,0.949586
1368021327955,0.953758
1368021387955,0.946760
1368021447955,0.943932
1368021507955,0.954785
1368021567955,0.953002
1368021627965,0.940051
1368021687965,0.940804
1368021747965,0.947246
1368021807965,0.952333
1368021867965,0.942011
1368021927965,0.945199
1368021987965,0.947902
1368022047965,0.944484
1368022107965,0.950507
1368022167965,0.945399
1368022227965,0.944991
1368022287965,0.948014
1368022347965,0.944463
1368022407965,0.942200
1368022467965,0.943304
1368022527965,0.939043
1368022587965,0.939489
1368022647965,0.947292
1368022707965,0.946453
1368022767965,0.943928
1368022827965,0.942808
1368022887965,0.942565
1368022947965,0.948668
1368023007965,0.943386
1368023067965,0.938843
1368023127965,0.941298
1368023187965,0.942708
1368023247965,0.947511
1368023307965,0.952713
1368023367965,0.949652
1368023427965,0.938736
1368023487965,0.947025
1368023547965,0.939134
1368023607965,0.940881
1368023667965,0.938938
1368023727965,0.947923
1368023787965,0.948135
1368023847965,0.943374
1368023907965,0.944292
1368023967965,0.943666
1368024027965,0.936115
1368024087965,0.942515
1368024147965,0.938925
1368024207965,0.943502
1368024267965,0.944805
1368024327965,0.938542
1368024387965,0.940755
1368024447965,0.938741
1368024507965,0.943840
1368024567965,0.938643
1368024627965,0.945764
1368024687965,0.939080
1368024747965,0.944683
1368024807965,0.947561
1368024867965,0.941760
1368024927965,0.945944
1368024987965,0.941870
1368025047965,0.949946
1368025107965,0.947242
1368025167965,0.946620
1368025227974,0.942657
1368025287974,0.945389
1368025347974,0.943904
1368025407974,0.942193
1368025467974,0.940059
1368025527974,0.940329
1368025587974,0.942096
1368025647974,0.950707
1368025707974,0.938055
1368025767974,0.938894
1368025827974,0.939940
1368025887974,0.945701
1368025947974,0.938999
1368026007974,0.945295
1368026067974,0.940026
1368026127974,0.948631
1368026187974,0.945988
1368026247974,0.952350
1368026307974,0.952430
1368026367974,0.941368
1368026427974,0.944726
1368026487974,0.953923
1368026547974,0.949970
1368026607974,0.940088
1368026667974,0.947252
1368026727974,0.942709
1368026787974,0.946921
1368026847974,0.940781
1368026907974,0.945629
1368026967974,0.934394
1368027027974,0.944927
1368027087974,0.942431
1368027147974,0.939186
1368027207974,0.950075
1368027267974,0.946523
1368027327974,0.948131
1368027387974,0.957169
1368027447974,0.945383
1368027507974,0.955133
1368027567974,0.955257
1368027627974,0.948875
1368027687974,0.952320
1368027747974,0.953598
1368027807974,0.946768
1368027867974,0.943043
1368027927974,0.942548
1368027987974,0.940319
1368028047974,0.945799
1368028107974,0.949821
1368028167974,0.955353
1368028227974,0.950780
1368028287974,0.947208
1368028347974,0.944577
1368028407974,0.937836
1368028467974,0.941938
1368028527974,0.948616
1368028587974,0.947977
1368028647974,0.946160
1368028707974,0.944905
1368028767974,0.938694
1368028827984,0.937773
1368028887984,0.949022
1368028947984,0.950228
1368029007984,0.947070
1368029067984,0.940856
1368029127984,0.947154
1368029187984,0.945978
1368029247984,0.948938
1368029307984,0.957557
1368029367984,0.936244
1368029427984,0.951028
1368029487984,0.953275
1368029547984,0.949269
1368029607984,0.946628
1368029667984,0.951874
1368029727984,0.952964
1368029787984,0.951992
1368029847984,0.956673
1368029907984,0.956687
1368029967984,0.952744
1368030027984,0.949760
1368030087984,0.957556
1368030147984,0.959241
1368030207984,0.957190
1368030267984,0.952170
1368030327984,0.957894
1368030387984,0.958924
1368030447984,0.952709
1368030507984,0.952173
1368030567984,0.948264
1368030627984,0.953865
1368030687984,0.949421
1368030747984,0.961096
1368030807984,0.961619
1368030867984,0.953838
1368030927984,0.960832
1368030987984,0.950456
1368031047984,0.950971
1368031107984,0.950737
1368031167984,0.952556
1368031227984,0.950736
1368031287984,0.951391
1368031347984,0.955441
1368031407984,0.951652
1368031467984,0.964846
1368031527984,0.958293
1368031587984,0.960352
1368031647984,0.959632
1368031707984,0.949715
1368031767984,0.953083
1368031827984,0.952749
1368031887984,0.964043
1368031947984,0.959256
1368032007984,0.960967
1368032067984,0.959912
1368032127984,0.959478
1368032187984,0.968898
1368032247984,0.967620
1368032307984,0.969751
1368032367984,0.972053
1368032427994,0.972172
1368032487994,0.976555
1368032547994,0.967907
1368032607994,0.973184
1368032667994,0.971226
1368032727994,0.985568
1368032787994,0.970611
1368032847994,0.975158
1368032907994,0.987013
1368032967994,0.977278
1368033027994,0.978567
1368033087994,0.979444
1368033627994,0.988350
1368033687994,0.983982
1368033747994,0.986846
1368033807994,0.989187
1368033867994,0.988159
1368033927994,0.997451
1368033987994,0.994906
1368034047994,0.996003
1368034107994,0.996165
1368034167994,0.986752
1368034227994,0.992482
1368034287994,0.992945